Zurück zum Katalog

STARLINK-38249

AktivKommunikationSSO
NORAD 100221·PAYLOAD·🇺🇸 United States

Gestartet Aug 4, 2026 von Vandenberg Space Force Base

Loading…

Nächste Überflüge (nächste 24 Stunden)

TLE

AktuellSource: Space-Track

Epoche: Sep 13, 2026, 15:55 UTC

1 A0221U 26177J   26256.66321577 -.00336563  00000-0 -34936-2 0  9991
2 A0221  97.2830 307.5736 0001175 214.2565 145.8620 15.65614007  7385

Verfolge STARLINK-38249 in Echtzeit mit AllMySat

Download on the App Store